• In Hungary
  • List of Countries
  • For 7 days
  • Water Temperature
  • Satellite Maps
  • Weather Map
  • News
  • Weather Widgets
  • user-avatar
    Login

    Hourly Weather Halberstadt

    Today, 19 November, Sunday

    Time Temperature Precipitation Wind Pressure Humidity
    00:00 +1°C° 0 mm 5 mps 748 mmHg 86%
    01:00 +1°C° 0 mm 5 mps 747 mmHg 85%
    02:00 +1°C° 0 mm 5 mps 747 mmHg 85%
    03:00 0°C° 0 mm 5 mps 747 mmHg 85%
    04:00 0°C° 0 mm 5 mps 747 mmHg 85%
    05:00 +1°C° 0 mm 6 mps 746 mmHg 84%
    06:00 +1°C° 0 mm 6 mps 746 mmHg 84%
    07:00 +1°C° 0 mm 6 mps 746 mmHg 83%
    08:00 +2°C° 0 mm 7 mps 746 mmHg 80%
    09:00 +2°C° 0 mm 8 mps 746 mmHg 78%
    10:00 +2°C° 0 mm 9 mps 746 mmHg 75%
    11:00 +3°C° 0.1 mm 9 mps 746 mmHg 73%
    12:00 +3°C° 0.1 mm 9 mps 746 mmHg 72%
    13:00 +5°C° 0.1 mm 9 mps 746 mmHg 70%
    14:00 +5°C° 0.1 mm 9 mps 746 mmHg 71%
    15:00 +4°C° 0.1 mm 8 mps 747 mmHg 72%
    16:00 +4°C° 0.1 mm 8 mps 747 mmHg 72%
    17:00 +4°C° 0.1 mm 8 mps 747 mmHg 74%
    18:00 +4°C° 0.1 mm 8 mps 748 mmHg 76%
    19:00 +2°C° 0.1 mm 8 mps 748 mmHg 78%
    20:00 +2°C° 0.1 mm 8 mps 748 mmHg 79%
    21:00 +3°C° 0.1 mm 7 mps 749 mmHg 79%
    22:00 +3°C° 0.1 mm 7 mps 749 mmHg 80%
    23:00 +3°C° 0.1 mm 7 mps 750 mmHg 80%

    Tomorrow, 20 November, Monday

    Time Temperature Precipitation Wind Pressure Humidity
    00:00 +3°C° 0.1 mm 7 mps 750 mmHg 80%
    01:00 +2°C° 0.1 mm 7 mps 751 mmHg 80%
    02:00 +2°C° 0 mm 6 mps 751 mmHg 81%
    03:00 +2°C° 0 mm 6 mps 751 mmHg 82%
    04:00 +1°C° 0 mm 6 mps 751 mmHg 84%
    05:00 +1°C° 0 mm 5 mps 751 mmHg 85%
    06:00 +1°C° 0 mm 5 mps 751 mmHg 86%
    07:00 +1°C° 0 mm 5 mps 751 mmHg 87%
    08:00 +2°C° 0.2 mm 5 mps 752 mmHg 86%
    09:00 +2°C° 0.2 mm 5 mps 752 mmHg 84%
    10:00 +3°C° 0.2 mm 5 mps 752 mmHg 83%
    11:00 +3°C° 0.2 mm 5 mps 752 mmHg 81%
    12:00 +3°C° 0.2 mm 6 mps 751 mmHg 79%
    13:00 +4°C° 0.2 mm 6 mps 751 mmHg 77%
    14:00 +3°C° 0.6 mm 5 mps 750 mmHg 79%
    15:00 +3°C° 0.6 mm 5 mps 749 mmHg 81%
    16:00 +2°C° 0.6 mm 5 mps 748 mmHg 82%
    17:00 +3°C° 1.8 mm 5 mps 747 mmHg 84%
    18:00 +3°C° 1.8 mm 5 mps 746 mmHg 86%
    19:00 +5°C° 1.8 mm 5 mps 745 mmHg 88%
    20:00 +5°C° 1.1 mm 6 mps 745 mmHg 88%
    21:00 +6°C° 1.1 mm 7 mps 744 mmHg 88%
    22:00 +7°C° 1.1 mm 8 mps 744 mmHg 88%
    23:00 +7°C° 0.6 mm 8 mps 744 mmHg 88%

    Day after tomorrow, 21 November, Tuesday

    Time Temperature Precipitation Wind Pressure Humidity
    00:00 +8°C° 0.6 mm 7 mps 744 mmHg 88%
    01:00 +9°C° 0.6 mm 7 mps 744 mmHg 89%
    02:00 +8°C° 0.5 mm 7 mps 744 mmHg 90%
    03:00 +8°C° 0.5 mm 6 mps 744 mmHg 91%
    04:00 +8°C° 0.5 mm 5 mps 745 mmHg 92%
    05:00 +8°C° 0.4 mm 5 mps 745 mmHg 92%
    06:00 +8°C° 0.4 mm 5 mps 745 mmHg 92%
    07:00 +8°C° 0.4 mm 4 mps 745 mmHg 92%
    08:00 +8°C° 0.4 mm 5 mps 745 mmHg 91%
    09:00 +9°C° 0.4 mm 5 mps 746 mmHg 89%
    10:00 +9°C° 0.4 mm 5 mps 746 mmHg 88%
    11:00 +9°C° 0.3 mm 5 mps 746 mmHg 88%
    12:00 +8°C° 0.3 mm 5 mps 747 mmHg 88%
    13:00 +8°C° 0.3 mm 4 mps 747 mmHg 87%
    14:00 +8°C° 0.3 mm 4 mps 747 mmHg 89%
    15:00 +8°C° 0.3 mm 3 mps 747 mmHg 90%
    16:00 +8°C° 0.3 mm 2 mps 747 mmHg 92%
    17:00 +8°C° 0.6 mm 2 mps 747 mmHg 93%
    18:00 +7°C° 0.6 mm 2 mps 748 mmHg 93%
    19:00 +8°C° 0.6 mm 1 mps 748 mmHg 94%
    20:00 +7°C° 0.2 mm 2 mps 748 mmHg 93%
    21:00 +8°C° 0.2 mm 3 mps 748 mmHg 92%
    22:00 +7°C° 0.2 mm 4 mps 748 mmHg 91%
    23:00 +7°C° 0 mm 4 mps 747 mmHg 90%

    22 November, Wednesday

    Time Temperature Precipitation Wind Pressure Humidity
    00:00 +7°C° 0 mm 5 mps 747 mmHg 88%
    01:00 +7°C° 0 mm 5 mps 747 mmHg 87%
    02:00 +6°C° 0 mm 5 mps 747 mmHg 86%
    03:00 +6°C° 0 mm 5 mps 746 mmHg 86%
    04:00 +6°C° 0 mm 5 mps 746 mmHg 85%
    05:00 +7°C° 0 mm 5 mps 746 mmHg 85%
    06:00 +7°C° 0 mm 5 mps 746 mmHg 85%
    07:00 +7°C° 0 mm 6 mps 746 mmHg 84%
    08:00 +8°C° 0 mm 6 mps 746 mmHg 83%
    09:00 +8°C° 0 mm 6 mps 746 mmHg 82%
    10:00 +9°C° 0 mm 6 mps 747 mmHg 81%
    11:00 +9°C° 0 mm 6 mps 746 mmHg 79%
    12:00 +10°C° 0 mm 6 mps 746 mmHg 77%
    13:00 +10°C° 0 mm 7 mps 746 mmHg 75%
    14:00 +9°C° 0 mm 6 mps 746 mmHg 76%
    15:00 +9°C° 0 mm 5 mps 746 mmHg 77%
    16:00 +9°C° 0 mm 5 mps 746 mmHg 78%
    17:00 +8°C° 0 mm 5 mps 746 mmHg 79%
    18:00 +8°C° 0 mm 5 mps 746 mmHg 80%
    19:00 +7°C° 0 mm 5 mps 746 mmHg 81%
    20:00 +7°C° 0 mm 5 mps 747 mmHg 81%
    21:00 +7°C° 0 mm 5 mps 747 mmHg 80%
    22:00 +7°C° 0 mm 4 mps 747 mmHg 80%
    23:00 +6°C° 0 mm 4 mps 747 mmHg 79%

    23 November, Thursday

    Time Temperature Precipitation Wind Pressure Humidity
    00:00 +6°C° 0 mm 4 mps 747 mmHg 78%
    01:00 +6°C° 0 mm 4 mps 747 mmHg 77%
    02:00 +6°C° 0 mm 4 mps 747 mmHg 75%
    03:00 +6°C° 0 mm 4 mps 747 mmHg 74%
    04:00 +6°C° 0 mm 4 mps 747 mmHg 73%
    05:00 +6°C° 0 mm 4 mps 747 mmHg 73%
    06:00 +6°C° 0 mm 5 mps 747 mmHg 72%
    07:00 +6°C° 0 mm 5 mps 747 mmHg 72%
    08:00 +6°C° 0 mm 5 mps 748 mmHg 72%
    09:00 +7°C° 0 mm 5 mps 748 mmHg 72%
    10:00 +8°C° 0 mm 6 mps 748 mmHg 71%
    11:00 +9°C° 0 mm 6 mps 748 mmHg 69%
    12:00 +10°C° 0 mm 6 mps 748 mmHg 66%
    13:00 +11°C° 0 mm 6 mps 748 mmHg 63%
    14:00 +11°C° 0 mm 6 mps 748 mmHg 66%
    15:00 +10°C° 0 mm 5 mps 749 mmHg 69%
    16:00 +10°C° 0 mm 5 mps 749 mmHg 72%
    17:00 +9°C° 0 mm 5 mps 749 mmHg 74%
    18:00 +9°C° 0 mm 5 mps 750 mmHg 75%
    19:00 +9°C° 0 mm 5 mps 750 mmHg 77%
    20:00 +9°C° 0 mm 5 mps 750 mmHg 79%
    21:00 +9°C° 0 mm 5 mps 751 mmHg 80%
    22:00 +9°C° 0 mm 5 mps 751 mmHg 81%
    23:00 +9°C° 0 mm 5 mps 751 mmHg 82%

    24 November, Friday

    Time Temperature Precipitation Wind Pressure Humidity
    00:00 +8°C° 0 mm 4 mps 751 mmHg 83%
    01:00 +8°C° 0 mm 4 mps 751 mmHg 84%
    02:00 +8°C° 0 mm 4 mps 751 mmHg 84%
    03:00 +8°C° 0 mm 4 mps 751 mmHg 84%
    04:00 +8°C° 0 mm 4 mps 751 mmHg 85%
    05:00 +8°C° 0 mm 4 mps 751 mmHg 84%
    06:00 +8°C° 0 mm 4 mps 751 mmHg 84%
    07:00 +8°C° 0 mm 4 mps 751 mmHg 83%
    08:00 +8°C° 0 mm 4 mps 751 mmHg 79%
    09:00 +9°C° 0 mm 5 mps 751 mmHg 75%
    10:00 +10°C° 0 mm 5 mps 751 mmHg 71%
    11:00 +12°C° 0 mm 5 mps 750 mmHg 66%
    12:00 +13°C° 0 mm 6 mps 750 mmHg 61%
    13:00 +14°C° 0 mm 6 mps 750 mmHg 56%
    14:00 +13°C° 0 mm 6 mps 749 mmHg 56%
    15:00 +13°C° 0 mm 6 mps 749 mmHg 56%
    16:00 +12°C° 0 mm 5 mps 749 mmHg 57%
    17:00 +11°C° 0 mm 6 mps 749 mmHg 58%
    18:00 +10°C° 0 mm 6 mps 749 mmHg 59%
    19:00 +10°C° 0 mm 6 mps 749 mmHg 60%
    20:00 +10°C° 0 mm 6 mps 749 mmHg 60%
    21:00 +10°C° 0 mm 6 mps 749 mmHg 60%
    22:00 +10°C° 0 mm 6 mps 749 mmHg 61%
    23:00 +10°C° 0 mm 6 mps 749 mmHg 62%
    Show more